COSMOS 2552 (49503 NORAD) Tracking and Keplerian Element Data

This shows tracking and keplerian element data for the satellite.

Feedback or suggestion? Click here.




ElementValue
Catalog49503
NameCOSMOS 2552
Epoch Orbit102
Epoch Day15.39436847
Epoch Year2022
RAAN25.2954
Inclination63.8018
Eccentricity0.6991413
Argument of Perigee270.0472
Mean Anonmoly16.8707
Mean Motion2.00598658
Decay Rate-1.267E-05
L11 49503U 21113A 22015.39436847 -.00001267 00000+0 00000+0 0 9998
L22 49503 63.8018 25.2954 6991413 270.0472 16.8707 2.00598658 1026

Live tracking and technical data element details for COSMOS 2552 (NORAD 49503). COSMOS 2552 can be tracked NOW for your location showing map with azimuth and elevation plus other details from your city location.

Track the satellite on the map from your city or location and see movement details for azimuth, elevation, latitude, longitude, range, height, and movement on the map or in text.







IsCatalogInMostPopularTable: catalog: 49503, numindb: 8
Update: records affected: 1



GetName: 49503 COSMOS 2552

Hit Count: updated at: Thu, 20 Jan 2022 17:37:45 GMT